This is the latest recevied weather packets stored in our database for station/object N3WPH. If no packets are shown the sender has not sent any weather packets the latest 1 day(s).
| Time | Temp. | Humidity | Pressure | Rain* | Wind** | Luminosity | Snow |
|---|---|---|---|---|---|---|---|
| 1778059104 | 18.33° C | 59% | 1007.3 hPa | 0 mm | - | 0 W/m² | - |
| 1778058802 | 18.33° C | 58% | 1007.1 hPa | 0 mm | - | 0 W/m² | - |
| 1778058197 | 18.33° C | 58% | 1007.3 hPa | 0 mm | - | 0 W/m² | - |
| 1778057893 | 18.33° C | 57% | 1007.3 hPa | 0 mm | - | 0 W/m² | - |
| 1778057286 | 18.89° C | 57% | 1007.5 hPa | 0 mm | - | 0 W/m² | - |
| 1778056377 | 18.89° C | 55% | 1007.6 hPa | 0 mm | - | 0 W/m² | - |
| 1778055165 | 19.44° C | 54% | 1007.3 hPa | 0 mm | - | 0 W/m² | - |
| 1778054863 | 19.44° C | 52% | 1007.3 hPa | 0 mm | - | 0 W/m² | - |
| 1778054559 | 19.44° C | 52% | 1007.4 hPa | 0 mm | - | 0 W/m² | - |
| 1778054257 | 19.44° C | 52% | 1007.4 hPa | 0 mm | - | 0 W/m² | - |
| 1778053954 | 19.44° C | 52% | 1007.1 hPa | 0 mm | - | 0 W/m² | - |
| 1778053348 | 19.44° C | 51% | 1007.4 hPa | 0 mm | - | 0 W/m² | - |
| 1778053046 | 19.44° C | 50% | 1007.2 hPa | 0 mm | - | 0 W/m² | - |
| 1778052743 | 19.44° C | 50% | 1007.6 hPa | 0 mm | - | 0 W/m² | - |
| 1778052440 | 20° C | 50% | 1007.4 hPa | 0 mm | - | 0 W/m² | - |
| 1778051835 | 20° C | 49% | 1007.7 hPa | 0 mm | - | 0 W/m² | - |
| 1778051533 | 20° C | 49% | 1007.7 hPa | 0 mm | - | 0 W/m² | - |
| 1778050321 | 20° C | 48% | 1007.7 hPa | 0 mm | - | 0 W/m² | - |
| 1778049108 | 20° C | 49% | 1007.9 hPa | 0 mm | - | 0 W/m² | - |
| 1778048807 | 20° C | 49% | 1007.9 hPa | 0 mm | - | 0 W/m² | - |
| 1778048503 | 19.44° C | 49% | 1008 hPa | 0 mm | - | 0 W/m² | - |
| 1778048199 | 18.89° C | 49% | 1007.9 hPa | 0 mm | - | 0 W/m² | - |
| 1778047897 | 17.78° C | 53% | 1007.8 hPa | 0 mm | - | 0 W/m² | - |
| 1778047596 | 17.78° C | 54% | 1008 hPa | 0 mm | - | 0 W/m² | - |
| 1778047292 | 17.78° C | 55% | 1008.1 hPa | 0 mm | - | 0 W/m² | - |
* Rain latest hour (hover to see other rain measurements)
** Current wind speed in m/s (hover to see current wind gust speed)